Theta_e
322 323 320 322 323 323 324 325 326 328 331 333 335 338 341 342 348 362 355 352 353 355 361 350 344 338 340 342 342 339 336 332 327 331 331 335 335 336 338 340 343 345 336 327 331 336 333 326 323
322 320 322 323 322 323 325 325 325 326 329 331 330 331 339 339 344 355 356 352 350 355 361 353 338 334 339 341 343 339 340 335 329 332 332 336 336 337 338 341 344 338 329 332 336 332 326 323 322
320 322 324 322 324 323 324 325 325 325 327 327 326 329 332 344 350 347 349 351 353 357 360 354 339 334 335 342 343 339 341 335 330 331 332 336 336 337 337 339 337 332 330 335 332 326 323 322 322
319 323 326 324 323 324 324 325 323 324 324 324 325 325 328 339 339 329 343 353 355 358 358 354 342 334 336 343 345 340 341 335 331 331 331 336 336 337 337 334 333 331 334 332 328 324 323 322 325
320 324 323 322 322 323 324 323 323 323 323 324 324 323 325 333 327 326 334 348 355 357 355 353 343 333 338 340 348 342 341 336 332 329 329 336 335 336 329 328 330 333 332 329 325 324 322 323 326
321 321 324 323 324 324 324 324 322 322 323 324 323 324 325 330 328 324 331 340 350 355 355 354 348 337 339 342 342 343 342 338 334 329 329 335 336 334 328 329 335 333 331 327 324 323 322 325 331
320 323 321 321 322 323 323 324 323 323 323 323 324 323 325 326 331 325 323 340 347 355 355 354 351 349 342 341 342 342 341 340 337 332 332 336 336 335 329 334 336 334 330 326 323 322 324 332 340
320 321 322 322 321 322 323 322 322 321 322 323 322 322 324 326 325 322 322 329 345 355 354 353 347 344 349 351 349 343 342 341 339 335 335 336 336 331 332 335 336 334 329 325 323 323 329 340 346
317 318 319 319 320 320 320 319 320 320 319 320 320 321 322 321 321 321 322 323 340 356 356 353 350 343 341 343 351 351 344 342 339 337 337 336 340 338 337 340 340 332 326 324 323 325 333 345 346
318 320 319 319 318 317 318 318 318 318 319 319 319 320 319 318 319 321 322 323 327 348 355 353 352 346 341 340 348 348 348 347 345 344 345 339 337 339 341 343 341 329 325 323 324 330 336 344 346
321 320 320 320 319 319 319 319 319 319 319 319 319 320 321 321 321 321 321 322 323 335 352 355 353 347 343 340 345 342 343 341 342 341 344 339 338 341 342 344 338 334 325 332 333 336 341 344 347
319 320 319 319 318 318 318 318 318 318 319 319 319 319 320 321 321 321 321 321 322 324 346 354 354 350 346 341 343 339 340 340 340 341 345 340 340 345 342 339 333 333 334 333 340 339 343 349 349
322 322 319 319 320 320 320 320 319 319 319 319 318 318 318 320 321 320 321 321 321 323 329 351 355 351 348 346 344 339 339 340 340 341 345 341 342 346 341 337 334 334 332 338 341 342 346 350 347
323 321 321 321 321 321 321 321 320 320 319 320 319 318 318 318 319 320 321 322 322 322 324 347 356 351 349 346 345 343 341 339 340 342 345 344 344 344 341 338 335 333 334 338 342 345 347 348 346
321 322 323 323 322 320 320 320 321 321 321 321 321 320 319 319 319 320 319 321 322 322 325 334 355 351 351 348 348 346 343 342 342 343 346 345 343 344 340 337 333 335 339 343 347 351 350 346 345
323 324 326 323 323 322 322 323 322 321 322 323 322 321 321 321 321 319 320 321 321 322 324 334 353 354 351 351 349 348 346 344 343 342 345 346 343 345 339 334 334 338 344 347 347 346 343 343 342
325 325 323 322 323 323 323 324 323 323 323 324 323 323 323 323 323 322 319 320 320 322 324 329 342 352 353 351 350 349 347 344 343 342 344 346 344 345 338 334 337 344 345 345 345 344 343 343 344
324 323 323 324 323 323 324 324 324 324 325 326 326 325 325 325 325 324 323 321 320 320 323 328 338 346 353 352 351 350 348 346 343 341 342 345 343 342 337 334 342 347 345 344 344 343 344 344 344
322 324 324 323 324 325 326 327 327 327 327 327 327 327 327 327 326 324 324 324 322 321 323 333 335 346 350 353 351 351 349 347 344 342 341 344 342 339 335 336 347 348 343 343 346 347 347 343 341
323 324 325 326 325 326 328 329 328 328 328 327 327 326 326 325 324 325 325 325 325 323 324 330 342 348 350 353 352 351 349 348 344 342 341 343 341 338 336 340 347 348 343 347 348 346 343 341 339
324 324 326 327 326 328 329 329 328 328 327 326 324 323 324 325 326 324 325 327 325 324 325 327 346 346 351 352 351 350 351 348 345 343 342 342 339 338 338 343 346 348 345 347 348 347 346 340 339
325 323 325 327 330 332 330 335 331 329 328 327 326 326 326 327 327 328 324 326 326 323 325 324 342 347 350 351 351 350 350 348 346 344 343 343 340 339 337 342 347 349 343 346 347 346 343 344 340
324 324 326 328 330 332 333 336 331 328 330 329 328 327 327 327 327 326 326 324 323 322 323 326 337 347 349 350 351 352 350 348 346 343 345 343 341 339 338 346 348 349 345 347 343 342 340 339 338
323 326 327 327 329 340 332 329 329 331 329 327 327 328 329 328 326 326 325 324 323 322 321 325 337 346 350 350 350 351 349 349 345 345 347 344 342 340 343 347 348 348 345 342 340 337 335 333 332
324 328 335 333 334 330 327 330 331 328 326 326 327 328 328 328 327 324 326 324 325 322 321 323 338 344 348 348 349 349 348 348 347 346 346 344 343 342 345 347 346 344 341 337 334 333 331 331 329
325 328 336 336 333 330 328 335 333 327 326 325 325 325 328 329 328 325 324 320 322 321 321 321 333 342 346 347 348 349 349 346 345 345 345 344 344 344 345 346 343 339 335 333 330 329 327 327 325
325 329 325 334 330 334 329 326 330 329 328 326 325 325 327 328 330 329 323 320 321 321 322 323 330 338 344 347 347 347 347 346 344 345 346 344 343 346 345 342 337 334 331 328 327 328 325 323 322
325 324 330 331 333 333 327 328 336 331 329 327 325 326 327 327 329 318 326 320 321 320 320 323 335 338 344 346 346 347 347 345 346 347 345 341 344 345 341 336 332 329 327 326 324 321 320 319 317
325 325 326 330 330 335 338 330 326 330 327 324 321 323 325 327 332 328 324 320 320 319 321 339 340 338 344 345 346 346 346 345 345 344 343 346 343 338 333 331 328 325 323 320 318 317 316 314 312
321 323 325 332 334 333 336 331 326 326 325 323 322 321 322 326 331 333 321 320 320 321 326 336 340 340 344 344 345 345 345 345 344 344 344 338 336 332 329 325 322 321 317 316 314 312 310 309 309
Wind_Speed
8 9 10 8 7 8 18 19 16 1 7 4 6 7 9 8 9 5 8 8 5 12 19 27 27 24 23 24 27 29 25 23 24 26 25 25 24 23 20 17 16 13 11 10 9 7 6 3 1
7 6 10 7 9 14 15 18 8 4 8 6 7 10 11 8 8 16 8 9 2 13 16 23 28 27 24 24 27 28 26 24 24 25 26 25 23 21 19 16 16 14 12 11 9 6 4 3 1
7 10 9 6 15 16 16 6 6 7 4 6 6 0 10 6 14 8 11 6 1 12 15 22 28 27 24 25 28 30 26 25 25 26 26 25 22 20 18 16 15 15 13 11 8 6 4 2 1
8 6 8 11 19 17 15 6 1 7 6 7 10 6 4 8 6 8 7 4 4 9 14 22 27 28 25 24 27 30 28 26 26 26 26 25 22 18 17 16 15 14 13 10 8 5 3 1 2
12 8 12 15 19 21 9 5 2 10 11 7 9 11 8 12 5 7 6 2 3 9 12 17 22 28 27 26 25 30 30 28 26 26 25 24 21 18 16 16 16 14 11 10 7 5 2 2 2
8 6 14 15 20 18 9 0 8 11 13 9 9 11 12 17 5 7 9 5 3 10 12 15 21 28 28 27 27 30 30 29 27 25 24 23 20 18 16 16 14 12 10 8 7 4 2 2 3
13 11 16 19 18 7 2 5 7 15 17 14 5 11 8 13 4 8 12 3 4 10 14 14 18 23 28 27 27 29 30 29 27 25 24 21 19 16 17 15 13 11 9 8 6 4 4 3 3
8 10 19 17 11 16 5 5 9 9 16 15 9 7 12 10 7 12 13 8 5 7 11 16 19 23 22 21 22 27 29 29 27 25 22 21 18 16 16 15 12 10 8 7 6 5 5 4 3
8 9 12 14 13 12 7 11 8 10 11 17 19 21 20 25 20 19 16 16 8 8 12 17 21 25 24 23 21 22 26 27 25 24 23 21 15 15 13 12 13 11 9 7 6 5 6 5 5
9 9 9 12 11 12 13 15 16 17 20 21 20 23 27 24 24 19 17 14 16 13 14 19 22 25 26 25 22 24 22 21 21 20 19 18 17 16 14 13 12 10 9 7 6 6 6 8 12
2 11 9 7 8 11 15 17 17 19 20 20 19 21 21 19 19 17 19 20 18 11 16 19 23 27 27 26 24 25 25 24 23 23 21 20 18 16 15 12 11 10 9 7 7 6 7 12 8
9 9 9 11 11 14 16 18 19 20 21 19 19 21 22 21 19 18 20 23 21 20 15 18 23 25 28 27 25 27 27 26 25 25 24 22 19 17 17 14 14 13 12 10 8 9 6 5 8
15 12 9 13 16 18 19 20 22 24 22 20 19 21 22 22 22 26 24 22 21 19 16 20 23 26 28 23 26 27 26 27 26 26 25 24 22 18 18 14 13 11 11 9 9 8 6 7 6
14 12 18 18 19 18 18 19 18 22 18 18 18 17 18 20 22 24 25 22 21 19 24 18 23 29 28 27 23 25 26 27 26 26 26 25 23 20 18 14 13 12 9 9 8 7 7 6 5
12 18 18 19 8 11 13 19 23 20 14 17 17 18 18 18 20 20 25 24 21 22 23 23 24 33 29 31 24 25 27 26 27 25 25 25 23 22 18 16 15 13 11 8 7 4 6 7 6
20 19 14 5 8 11 7 20 16 15 14 17 18 18 18 17 18 22 23 24 24 23 23 26 24 29 37 30 29 28 26 25 25 24 24 26 24 21 19 18 16 14 11 11 10 8 7 6 6
18 11 16 19 11 15 13 21 20 19 22 21 20 19 18 19 21 24 25 24 24 22 22 25 29 31 34 33 31 30 26 28 26 25 24 26 25 22 22 19 17 14 12 10 9 8 6 6 7
18 20 19 19 18 19 21 25 22 20 23 25 23 22 21 22 23 24 27 28 25 26 25 27 27 30 32 34 32 29 28 29 26 26 25 27 25 23 22 19 16 14 12 11 9 6 4 5 5
16 18 21 20 15 18 20 25 26 24 23 24 24 22 21 20 20 26 28 27 28 25 25 27 30 30 31 32 33 30 28 30 28 27 25 27 25 24 24 19 14 15 13 9 9 6 5 7 2
16 19 19 18 18 21 24 26 18 18 10 15 14 15 15 15 16 19 24 26 27 23 25 28 28 27 31 33 34 31 30 30 30 27 24 26 24 24 26 18 17 16 13 10 8 7 6 4 3
14 15 17 23 24 26 21 19 12 16 17 5 7 11 11 13 14 15 19 23 24 24 24 30 27 28 32 33 33 33 28 27 29 28 27 26 26 24 23 19 17 17 13 12 10 7 6 8 5
15 17 19 23 23 17 19 17 15 12 13 8 10 11 16 20 22 19 15 19 24 26 27 31 27 29 32 35 33 35 27 23 28 28 26 26 26 25 22 20 17 14 15 14 10 6 5 5 4
17 15 21 26 21 14 15 10 11 17 21 24 24 25 24 24 24 23 19 19 30 31 29 29 29 30 32 36 34 34 30 28 28 28 27 27 26 25 23 21 17 16 14 10 11 7 4 2 1
11 17 22 19 15 6 7 12 9 13 17 21 25 27 26 27 25 24 22 26 27 33 34 30 31 29 32 36 35 34 35 29 28 28 29 27 26 25 23 21 19 16 16 15 13 10 8 7 6
7 14 6 5 3 11 23 13 5 12 16 19 23 25 26 26 26 23 18 19 24 31 34 32 30 30 31 35 34 33 33 27 26 29 28 28 27 26 24 23 22 19 19 17 16 14 13 9 9
12 7 1 4 9 19 22 5 2 7 17 22 25 23 26 27 26 19 23 15 21 30 33 34 32 29 29 33 34 31 30 29 28 30 29 29 28 27 29 24 22 20 20 19 19 16 16 12 12
6 5 7 3 8 8 5 10 2 17 25 29 31 25 25 28 28 26 13 12 16 26 30 31 33 29 26 30 33 32 31 32 29 31 26 27 26 27 29 25 23 21 20 18 19 17 15 12 12
9 8 6 1 5 9 12 14 13 24 27 31 32 28 28 29 22 15 31 9 17 24 24 28 23 25 28 29 30 31 30 29 27 29 27 26 25 31 28 27 25 23 22 19 21 22 18 14 11
6 8 6 3 3 3 6 11 9 23 28 25 25 27 26 26 28 29 12 8 15 21 29 23 23 25 27 28 27 28 27 27 23 23 23 25 30 35 30 28 27 25 25 24 27 23 20 16 13
4 12 9 5 6 7 6 8 17 22 25 22 21 24 26 25 22 22 12 11 13 20 27 25 23 23 28 27 27 25 27 21 24 23 27 35 33 32 31 28 26 25 32 28 24 20 20 18 15
Wind_Direction
295 263 245 243 240 230 252 239 246 142 262 212 331 291 327 343 344 49 54 44 59 155 160 179 182 186 193 190 190 187 187 183 178 173 174 169 162 158 158 159 153 150 148 145 142 139 133 124 118
292 240 229 262 247 247 242 227 209 273 18 10 276 259 262 262 36 77 36 15 10 173 168 175 186 186 194 192 194 191 188 186 182 177 178 174 168 163 162 162 158 155 152 147 145 142 139 140 163
267 241 251 227 234 251 264 21 351 228 97 272 280 231 320 25 48 9 17 356 19 161 171 181 187 190 190 193 195 192 192 189 184 182 183 179 174 169 166 165 163 157 154 153 153 151 154 168 240
215 201 256 254 249 242 253 339 280 279 238 243 253 298 181 62 73 6 9 12 125 169 177 189 193 190 191 193 194 193 191 191 188 187 186 183 177 175 171 168 166 161 158 155 155 152 163 223 271
233 254 245 235 250 264 274 277 6 265 262 241 231 255 260 134 110 6 21 48 188 175 176 179 199 193 195 193 193 196 190 191 191 190 189 188 181 178 174 169 167 166 164 158 159 164 172 229 274
232 256 246 247 245 238 232 237 251 268 267 232 255 260 262 118 170 9 4 355 239 188 183 175 197 197 196 195 195 197 194 191 192 192 191 191 186 179 175 170 170 171 167 165 164 175 190 242 279
251 245 256 273 278 281 262 27 274 261 257 248 274 280 277 227 151 356 325 348 263 213 181 185 189 189 198 197 197 199 199 194 191 192 191 194 191 185 174 174 172 174 173 173 176 191 203 221 262
286 279 267 265 266 264 251 190 262 268 277 298 316 261 232 248 12 322 304 298 259 160 190 185 190 190 189 186 196 198 199 197 192 192 193 196 193 187 180 178 178 176 180 185 188 200 214 224 254
263 255 257 267 277 290 281 280 249 280 265 274 270 267 279 298 298 295 290 284 221 128 194 193 191 192 192 191 189 193 197 199 194 193 195 196 185 183 191 188 196 184 185 197 207 209 215 227 235
258 259 292 8 330 299 293 283 287 276 270 265 263 267 263 266 271 271 274 270 267 184 199 204 193 195 192 189 188 188 190 192 191 190 191 189 194 190 189 190 199 196 195 203 216 221 216 236 252
292 270 357 306 297 301 287 281 278 274 266 266 269 271 279 279 274 272 271 267 270 239 195 199 207 187 195 191 185 187 188 192 191 188 187 192 194 190 188 194 200 197 204 215 217 226 232 240 291
275 267 284 294 296 284 281 289 282 276 278 283 282 283 282 278 275 269 266 260 250 248 199 198 210 194 198 193 187 188 186 188 188 189 186 193 196 185 199 196 195 197 194 209 209 226 236 271 261
261 262 283 276 274 276 279 271 276 275 278 277 272 268 263 265 264 266 265 266 270 271 271 192 196 205 194 202 189 193 190 189 191 187 190 188 194 185 195 194 196 196 203 199 213 230 244 262 267
308 295 290 280 276 275 274 279 278 274 271 264 258 259 264 264 263 259 257 253 246 249 256 215 185 201 193 202 195 195 195 191 194 186 190 195 192 180 193 185 200 198 206 215 219 227 245 249 277
292 282 271 257 250 272 269 274 258 260 272 266 271 263 257 258 265 261 254 256 253 242 237 255 189 194 204 196 196 202 195 195 195 190 187 195 194 175 191 187 195 197 201 214 218 233 235 251 254
253 256 270 121 270 281 303 282 283 280 296 275 257 252 260 257 258 265 253 247 251 249 243 229 203 195 199 200 197 198 200 197 196 194 186 190 191 180 190 187 194 195 197 201 207 214 223 247 260
233 269 304 307 307 296 267 282 281 273 271 263 260 258 259 257 253 251 257 247 243 245 245 248 218 202 203 203 198 201 200 201 195 194 191 190 190 187 190 187 192 180 198 202 209 217 234 244 260
320 306 304 299 304 298 288 282 291 285 279 279 276 272 267 259 256 257 254 249 241 239 239 243 231 221 193 203 204 201 202 200 198 194 193 185 192 189 192 192 182 180 195 200 203 217 203 269 297
294 286 292 288 302 298 302 297 293 288 283 279 277 277 275 276 265 254 251 256 247 234 237 246 234 211 197 195 202 201 203 195 201 197 190 184 189 188 189 189 179 188 200 199 183 197 201 246 273
289 291 298 315 326 311 296 290 297 292 314 304 292 296 289 285 293 272 257 246 247 230 225 248 225 216 197 200 203 201 202 198 200 193 188 182 187 185 186 186 183 186 189 184 186 201 230 223 307
299 301 330 317 313 296 296 305 327 325 282 285 273 266 280 277 284 274 273 245 240 227 228 241 219 219 209 204 199 202 207 198 199 186 180 186 185 186 186 188 186 182 192 188 189 197 222 259 147
303 338 319 308 308 307 319 304 301 306 309 359 318 321 325 328 313 291 253 251 232 232 224 236 224 216 212 202 198 199 208 196 191 187 186 185 182 183 185 186 183 177 193 169 174 185 212 229 180
301 316 298 299 296 317 313 307 313 346 355 350 338 336 325 312 296 284 273 240 241 229 229 216 230 210 215 204 202 197 204 195 188 188 180 178 181 177 181 182 177 182 181 149 148 153 169 179 290
310 288 316 294 252 285 272 325 313 5 348 336 332 322 313 305 298 283 259 253 239 236 223 211 219 210 208 207 201 195 199 200 181 187 166 181 179 176 179 176 176 172 148 147 145 137 116 108 92
306 358 324 323 321 301 341 320 86 18 355 341 328 321 313 305 291 282 278 259 236 229 220 208 205 211 208 208 203 197 199 204 187 178 175 177 177 174 171 170 167 159 147 144 136 126 113 102 96
307 28 4 296 316 309 301 282 8 28 359 339 327 317 320 318 299 292 280 261 243 216 219 204 198 207 205 207 203 199 195 196 193 184 178 181 175 172 164 166 159 151 143 136 128 120 113 107 94
342 348 338 253 265 269 259 310 177 347 344 341 335 326 320 317 303 306 262 257 229 210 213 201 199 199 203 205 201 195 189 194 192 181 187 182 171 155 156 153 146 141 132 126 120 117 108 104 93
293 15 311 351 303 299 324 317 358 343 345 343 333 327 324 320 329 311 284 210 205 203 191 208 180 192 203 200 195 191 187 192 188 174 181 171 160 145 145 138 138 132 124 120 113 107 103 93 82
161 332 311 276 244 285 305 320 21 10 352 343 323 319 327 324 322 314 208 215 189 195 193 165 184 194 195 191 188 187 182 182 168 171 172 147 132 127 133 134 131 128 122 121 118 110 106 97 86
324 323 338 312 287 241 263 285 358 6 359 328 323 326 329 326 308 290 133 171 191 205 184 166 181 196 188 184 182 184 169 154 143 151 133 128 124 129 130 126 123 123 125 118 110 109 94 95 87